TimeCST,TemperatureF,Dew PointF,Humidity,Sea Level PressureIn,VisibilityMPH,Wind Direction,Wind SpeedMPH,Gust SpeedMPH,PrecipitationIn,Events,Conditions,WindDirDegrees,DateUTC
12:15 AM,28.4,14.5,56,29.85,10.0,NNW,10.4,-,N/A,,Clear,340,2014-01-20 06:15:00
12:35 AM,29.8,15.4,55,29.85,10.0,North,11.5,-,N/A,,Clear,350,2014-01-20 06:35:00
12:55 AM,28.4,14.7,57,29.84,10.0,North,10.4,-,N/A,,Clear,350,2014-01-20 06:55:00
1:15 AM,30.2,16.5,57,29.84,10.0,NNW,10.4,-,N/A,,Clear,340,2014-01-20 07:15:00
1:35 AM,30.2,16.5,57,29.85,10.0,NNW,10.4,-,N/A,,Clear,340,2014-01-20 07:35:00
1:55 AM,29.5,16.5,59,29.84,10.0,North,11.5,-,N/A,,Clear,350,2014-01-20 07:55:00
2:15 AM,30.2,17.2,59,29.85,10.0,NNW,10.4,-,N/A,,Clear,330,2014-01-20 08:15:00
2:35 AM,30.0,17.4,59,29.87,10.0,NNW,9.2,-,N/A,,Clear,340,2014-01-20 08:35:00
2:55 AM,29.8,18.1,62,29.87,10.0,North,10.4,-,N/A,,Clear,350,2014-01-20 08:55:00
3:15 AM,31.8,19.4,60,29.88,10.0,NNW,10.4,-,N/A,,Clear,340,2014-01-20 09:15:00
3:35 AM,33.3,20.3,59,29.87,10.0,NNW,11.5,-,N/A,,Clear,330,2014-01-20 09:35:00
3:55 AM,34.5,20.3,56,29.88,10.0,NNW,11.5,-,N/A,,Clear,330,2014-01-20 09:55:00
4:15 AM,33.6,20.1,58,29.89,10.0,NNW,11.5,-,N/A,,Clear,330,2014-01-20 10:15:00
4:35 AM,32.0,20.1,62,29.89,10.0,NNW,11.5,-,N/A,,Clear,340,2014-01-20 10:35:00
4:55 AM,32.0,20.3,62,29.91,10.0,NNW,5.8,-,N/A,,Clear,330,2014-01-20 10:55:00
5:15 AM,31.8,20.5,63,29.92,10.0,NNW,3.5,-,N/A,,Clear,340,2014-01-20 11:15:00
5:35 AM,30.7,19.9,64,29.91,10.0,NW,3.5,-,N/A,,Clear,310,2014-01-20 11:35:00
5:55 AM,30.4,20.1,66,29.92,10.0,Calm,Calm,-,N/A,,Clear,0,2014-01-20 11:55:00
6:15 AM,30.0,20.1,67,29.94,10.0,Calm,Calm,-,N/A,,Clear,0,2014-01-20 12:15:00
6:35 AM,30.4,20.8,68,29.94,10.0,Calm,Calm,-,N/A,,Scattered Clouds,0,2014-01-20 12:35:00
6:55 AM,30.0,21.0,69,29.95,10.0,NW,4.6,-,N/A,,Scattered Clouds,320,2014-01-20 12:55:00
7:15 AM,28.6,21.0,73,29.95,10.0,Calm,Calm,-,N/A,,Clear,0,2014-01-20 13:15:00
7:35 AM,28.9,21.7,74,29.95,10.0,Calm,Calm,-,N/A,,Clear,0,2014-01-20 13:35:00
7:55 AM,28.0,21.0,75,29.96,10.0,WSW,4.6,-,N/A,,Clear,250,2014-01-20 13:55:00
8:15 AM,32.7,24.1,71,29.97,10.0,NW,6.9,-,N/A,,Clear,320,2014-01-20 14:15:00
8:35 AM,35.6,23.9,62,29.98,10.0,NW,10.4,-,N/A,,Clear,310,2014-01-20 14:35:00
8:55 AM,36.9,24.3,60,29.99,10.0,NW,11.5,-,N/A,,Clear,320,2014-01-20 14:55:00
9:15 AM,37.4,24.6,60,30.00,10.0,NW,12.7,-,N/A,,Clear,320,2014-01-20 15:15:00
9:35 AM,37.8,24.3,58,30.00,10.0,NW,12.7,-,N/A,,Clear,310,2014-01-20 15:35:00
9:55 AM,38.8,24.1,55,30.01,10.0,WNW,12.7,-,N/A,,Clear,300,2014-01-20 15:55:00
10:15 AM,41.9,24.6,50,30.02,10.0,NW,17.3,21.9,N/A,,Clear,310,2014-01-20 16:15:00
10:35 AM,44.1,23.7,45,30.03,10.0,NW,25.3,-,N/A,,Clear,310,2014-01-20 16:35:00
10:55 AM,45.0,24.1,44,30.04,10.0,NW,16.1,26.5,N/A,,Clear,310,2014-01-20 16:55:00
11:15 AM,45.7,22.1,39,30.04,10.0,NW,29.9,34.5,N/A,,Clear,310,2014-01-20 17:15:00
11:35 AM,45.7,20.5,37,30.04,10.0,NW,24.2,33.4,N/A,,Clear,310,2014-01-20 17:35:00
11:55 AM,45.5,20.3,37,30.03,10.0,NW,28.8,33.4,N/A,,Clear,310,2014-01-20 17:55:00
12:15 PM,46.6,19.9,35,30.02,10.0,NW,27.6,33.4,N/A,,Clear,310,2014-01-20 18:15:00
12:35 PM,47.8,19.9,33,30.02,10.0,NW,28.8,39.1,N/A,,Scattered Clouds,310,2014-01-20 18:35:00
12:55 PM,47.5,19.6,33,30.02,10.0,NW,29.9,41.4,N/A,,Mostly Cloudy,310,2014-01-20 18:55:00
1:15 PM,45.0,19.4,36,30.02,10.0,NW,27.6,39.1,N/A,,Overcast,310,2014-01-20 19:15:00
1:35 PM,44.6,20.1,38,30.02,10.0,NW,25.3,35.7,N/A,,Overcast,310,2014-01-20 19:35:00
1:55 PM,44.8,19.4,36,30.02,10.0,NW,23.0,29.9,N/A,,Overcast,320,2014-01-20 19:55:00
2:15 PM,44.6,18.5,35,30.02,10.0,NW,26.5,35.7,N/A,,Overcast,310,2014-01-20 20:15:00
2:35 PM,44.8,18.7,35,30.02,10.0,NW,20.7,34.5,N/A,,Overcast,310,2014-01-20 20:35:00
2:55 PM,44.8,19.6,37,30.02,10.0,NW,28.8,40.3,N/A,,Overcast,320,2014-01-20 20:55:00
3:15 PM,42.8,22.8,45,30.04,10.0,NNW,27.6,38.0,N/A,,Drizzle,330,2014-01-20 21:15:00
3:35 PM,35.6,29.1,77,30.07,4.0,NW,28.8,41.4,N/A,Rain,Light Rain,310,2014-01-20 21:35:00
3:55 PM,37.2,25.2,62,30.08,10.0,NW,26.5,36.8,N/A,,Overcast,310,2014-01-20 21:55:00
4:15 PM,34.3,23.5,65,30.11,10.0,NNW,35.7,48.3,N/A,,Mostly Cloudy,330,2014-01-20 22:15:00
4:35 PM,33.6,18.9,55,30.13,10.0,NNW,29.9,43.7,N/A,,Overcast,330,2014-01-20 22:35:00
4:55 PM,32.0,14.9,49,30.15,10.0,NNW,31.1,43.7,N/A,,Overcast,330,2014-01-20 22:55:00
5:15 PM,28.2,14.7,57,30.19,10.0,NNW,27.6,43.7,N/A,,Overcast,330,2014-01-20 23:15:00
5:35 PM,25.7,9.7,51,30.21,10.0,NNW,34.5,50.6,N/A,,Overcast,330,2014-01-20 23:35:00
5:55 PM,23.5,7.7,51,30.23,10.0,NNW,24.2,42.6,N/A,,Scattered Clouds,330,2014-01-20 23:55:00
6:15 PM,20.8,8.1,58,30.25,10.0,North,-9999.0,-,N/A,,Clear,0,2014-01-21 00:15:00
6:35 PM,18.1,6.3,60,30.27,10.0,NNW,34.5,-,N/A,,Scattered Clouds,340,2014-01-21 00:35:00
6:55 PM,15.8,5.0,62,30.30,10.0,North,-9999.0,-,N/A,,Scattered Clouds,0,2014-01-21 00:55:00
7:15 PM,14.0,3.0,62,30.31,10.0,North,-9999.0,-,N/A,,Scattered Clouds,0,2014-01-21 01:15:00
7:35 PM,12.7,2.1,63,30.33,10.0,North,-9999.0,-,N/A,,Clear,0,2014-01-21 01:35:00
7:55 PM,11.8,1.2,62,30.35,10.0,North,-9999.0,-,N/A,,Clear,0,2014-01-21 01:55:00
8:15 PM,10.9,0.1,62,30.37,10.0,North,-9999.0,-,N/A,,Clear,0,2014-01-21 02:15:00
8:35 PM,10.2,-0.6,62,30.39,10.0,North,-9999.0,-,N/A,,Clear,0,2014-01-21 02:35:00
8:55 PM,8.8,-2.2,61,30.41,10.0,North,-9999.0,-,N/A,,Clear,0,2014-01-21 02:55:00
9:15 PM,8.4,-2.9,60,30.41,10.0,North,-9999.0,-,N/A,,Clear,0,2014-01-21 03:15:00
9:35 PM,7.7,-2.7,62,30.42,10.0,North,-9999.0,-,N/A,,Clear,0,2014-01-21 03:35:00
9:55 PM,6.6,-4.4,61,30.43,10.0,North,-9999.0,-,N/A,,Scattered Clouds,0,2014-01-21 03:55:00
10:15 PM,5.9,-4.9,61,30.44,10.0,North,-9999.0,-,N/A,,Clear,0,2014-01-21 04:15:00
10:35 PM,5.7,-4.4,63,30.44,10.0,North,-9999.0,-,N/A,,Clear,0,2014-01-21 04:35:00
10:55 PM,5.0,-5.4,62,30.45,10.0,North,-9999.0,-,N/A,,Clear,0,2014-01-21 04:55:00
11:15 PM,4.6,-6.5,60,30.46,10.0,North,-9999.0,-,N/A,,Clear,0,2014-01-21 05:15:00
11:35 PM,3.9,-8.0,58,30.47,10.0,North,-9999.0,-,N/A,,Clear,0,2014-01-21 05:35:00
11:55 PM,3.2,-9.2,56,30.48,10.0,NNW,11.5,-,N/A,,Clear,330,2014-01-21 05:55:00